, AZ

(GMT )
Payson

Weather History for KPAN - January, 2013

Change the Weather History Date:

Sunday, January 13, 2013

  Actual Average Record
Temperature  
Mean Temperature 22 °F -  
Max Temperature 32 °F 54 °F 57 °F (2012)
Min Temperature 12 °F 25 °F 12 °F (2013)
Degree Days  
Heating Degree Days 43    
Moisture  
Dew Point 3 °F    
Average Humidity 47    
Maximum Humidity 73    
Minimum Humidity 25    
Precipitation  
Precipitation 0.00 in - - ()
Sea Level Pressure  
Sea Level Pressure 29.97 in    
Wind  
Wind Speed 1 mph (South)    
Max Wind Speed 9 mph    
Max Gust Speed -    
Visibility 10 miles    
Events      
Averages and records for this station are not official NWS values.
T = Trace of Precipitation, MM = Missing Value Source: NWS Daily Summary

Daily Weather History Graph

Daily Weather History Graph

Search for Another Location

Airport or City:

Trip Planner

Search our weather history database for the weather conditions in past years. The results will help you decide how hot, cold, wet, or windy it might be!

Date:

Astronomy

Jan. 13, 2013 Rise Set
Actual Time 7:31 AM MST 5:37 PM MST
Civil Twilight 7:04 AM MST 6:04 PM MST
Nautical Twilight 6:33 AM MST 6:35 PM MST
Astronomical Twilight 6:03 AM MST 7:05 PM MST
Moon 8:39 AM MST (1/13) 8:10 PM MST (1/13)
Length of Visible Light 11h 00m
Length of Day
10h 05m
Waxing Crescent, 5% of the Moon is Illuminated
Jan 13
Waxing Crescent
Jan 18
First Quarter
Jan 26
Full
Feb 3
Last Quarter
Feb 10
New

Hourly Weather History & Observations

Time (MST) Temp. Windchill Dew Point Humidity Pressure Visibility Wind Dir Wind Speed Gust Speed Precip Events Conditions
12:15 AM 17.6 °F - 6.8 °F 63% 30.00 in 10.0 mi Calm Calm - N/A   Clear
12:35 AM 15.8 °F - 6.8 °F 68% 30.00 in 10.0 mi Calm Calm - N/A   Clear
12:55 AM 17.6 °F - 6.8 °F 63% 30.00 in 10.0 mi Calm Calm - N/A   Clear
1:15 AM 17.6 °F - 5.0 °F 58% 30.00 in 10.0 mi Calm Calm - N/A   Clear
1:35 AM 15.8 °F - 5.0 °F 62% 30.00 in 10.0 mi Calm Calm - N/A   Clear
1:55 AM 15.8 °F - 5.0 °F 62% 30.00 in 10.0 mi Calm Calm - N/A   Clear
2:15 AM 15.8 °F - 5.0 °F 62% 29.99 in 10.0 mi Calm Calm - N/A   Clear
2:35 AM 15.8 °F - 5.0 °F 62% 30.00 in 10.0 mi Calm Calm - N/A   Clear
2:55 AM 15.8 °F - 5.0 °F 62% 30.00 in 10.0 mi Calm Calm - N/A   Clear
3:15 AM 14.0 °F - 5.0 °F 67% 30.00 in 10.0 mi Calm Calm - N/A   Clear
3:35 AM 14.0 °F - 5.0 °F 67% 30.00 in 10.0 mi Calm Calm - N/A   Clear
3:55 AM 14.0 °F - 5.0 °F 67% 29.99 in 10.0 mi Calm Calm - N/A   Clear
4:15 AM 14.0 °F - 5.0 °F 67% 29.98 in 10.0 mi Calm Calm - N/A   Clear
4:35 AM 14.0 °F - 5.0 °F 67% 29.98 in 10.0 mi Calm Calm - N/A   Clear
4:55 AM 14.0 °F - 5.0 °F 67% 29.98 in 10.0 mi Calm Calm - N/A   Clear
5:15 AM 14.0 °F - 5.0 °F 67% 29.98 in 10.0 mi Calm Calm - N/A   Clear
5:35 AM 14.0 °F - 5.0 °F 67% 29.98 in 10.0 mi Calm Calm - N/A   Clear
5:55 AM 12.2 °F - 5.0 °F 73% 29.98 in 10.0 mi Calm Calm - N/A   Clear
6:15 AM 14.0 °F - 5.0 °F 67% 29.99 in 10.0 mi Calm Calm - N/A   Clear
6:35 AM 14.0 °F - 3.2 °F 62% 29.99 in 10.0 mi Calm Calm - N/A   Clear
6:55 AM 14.0 °F - 3.2 °F 62% 30.00 in 10.0 mi Calm Calm - N/A   Clear
7:15 AM 12.2 °F - 3.2 °F 67% 30.00 in 10.0 mi Calm Calm - N/A   Clear
7:35 AM 12.2 °F - 3.2 °F 67% 30.01 in 10.0 mi Calm Calm - N/A   Clear
7:55 AM 12.2 °F - 3.2 °F 67% 30.01 in 10.0 mi Calm Calm - N/A   Clear
8:15 AM 12.2 °F - 5.0 °F 73% 30.01 in 10.0 mi Calm Calm - N/A   Clear
8:35 AM 14.0 °F - 5.0 °F 67% 30.02 in 10.0 mi Calm Calm - N/A   Clear
8:55 AM 17.6 °F - 6.8 °F 63% 30.02 in 10.0 mi Calm Calm - N/A   Clear
9:15 AM 23.0 °F - 5.0 °F 46% 30.02 in 10.0 mi Calm Calm - N/A   Clear
9:55 AM 26.6 °F 22.6 °F 5.0 °F 40% 30.02 in 10.0 mi SE 3.5 mph - N/A   Clear
10:15 AM 26.6 °F - 5.0 °F 40% 30.02 in 10.0 mi Calm Calm - N/A   Clear
10:35 AM 26.6 °F 21.2 °F 3.2 °F 37% 30.01 in 10.0 mi SSW 4.6 mph - N/A   Clear
10:55 AM 28.4 °F 22.2 °F 3.2 °F 34% 30.01 in 10.0 mi South 5.8 mph - N/A   Clear
11:15 AM 28.4 °F 21.2 °F 3.2 °F 34% 30.00 in 10.0 mi SSE 6.9 mph - N/A   Clear
11:35 AM 28.4 °F 24.6 °F 1.4 °F 31% 29.99 in 10.0 mi SSW 3.5 mph - N/A   Clear
11:55 AM 28.4 °F 21.2 °F 3.2 °F 34% 29.97 in 10.0 mi South 6.9 mph - N/A   Clear
12:15 PM 30.2 °F 23.4 °F 3.2 °F 32% 29.96 in 10.0 mi SE 6.9 mph - N/A   Clear
12:35 PM 30.2 °F 21.9 °F 3.2 °F 32% 29.95 in 10.0 mi South 9.2 mph - N/A   Clear
12:55 PM 30.2 °F 22.6 °F 3.2 °F 32% 29.94 in 10.0 mi SSE 8.1 mph - N/A   Clear
1:15 PM 30.2 °F 25.4 °F 1.4 °F 29% 29.94 in 10.0 mi South 4.6 mph - N/A   Clear
1:35 PM 30.2 °F - 1.4 °F 29% 29.92 in 10.0 mi Calm Calm - N/A   Clear
2:15 PM 32.0 °F 26.4 °F 1.4 °F 27% 29.92 in 10.0 mi WSW 5.8 mph - N/A   Clear
2:35 PM 30.2 °F 26.7 °F 1.4 °F 29% 29.92 in 10.0 mi WSW 3.5 mph - N/A   Clear
2:55 PM 32.0 °F 24.8 °F 1.4 °F 27% 29.92 in 10.0 mi SW 8.1 mph - N/A   Clear
3:15 PM 32.0 °F 25.6 °F 1.4 °F 27% 29.92 in 10.0 mi SSE 6.9 mph - N/A   Clear
3:35 PM 32.0 °F 25.6 °F 1.4 °F 27% 29.92 in 10.0 mi SW 6.9 mph - N/A   Clear
3:55 PM 30.2 °F 23.4 °F 1.4 °F 29% 29.93 in 10.0 mi South 6.9 mph - N/A   Clear
4:15 PM 30.2 °F 25.4 °F 1.4 °F 29% 29.93 in 10.0 mi SSW 4.6 mph - N/A   Clear
4:35 PM 30.2 °F 25.4 °F -0.4 °F 27% 29.93 in 10.0 mi South 4.6 mph - N/A   Clear
4:55 PM 30.2 °F 24.3 °F -0.4 °F 27% 29.93 in 10.0 mi South 5.8 mph - N/A   Clear
5:15 PM 28.4 °F 19.7 °F -0.4 °F 29% 29.94 in 10.0 mi South 9.2 mph - N/A   Clear
5:35 PM 28.4 °F 22.2 °F -2.2 °F 27% 29.94 in 10.0 mi South 5.8 mph - N/A   Clear
5:55 PM 28.4 °F 22.2 °F -4.0 °F 25% 29.94 in 10.0 mi South 5.8 mph - N/A   Clear
6:15 PM 26.6 °F 22.6 °F -4.0 °F 26% 29.94 in 10.0 mi South 3.5 mph - N/A   Clear
6:35 PM 26.6 °F 21.2 °F -2.2 °F 29% 29.94 in 10.0 mi SSE 4.6 mph - N/A   Clear
6:55 PM 24.8 °F - -2.2 °F 31% 29.94 in 10.0 mi Calm Calm - N/A   Clear
7:15 PM 23.0 °F - -0.4 °F 36% 29.94 in 10.0 mi Calm Calm - N/A   Clear
7:35 PM 23.0 °F - -0.4 °F 36% 29.93 in 10.0 mi Calm Calm - N/A   Clear
7:55 PM 23.0 °F - -2.2 °F 33% 29.93 in 10.0 mi Calm Calm - N/A   Clear
8:15 PM 21.2 °F - 3.2 °F 46% 29.93 in 10.0 mi Calm Calm - N/A   Clear
8:35 PM 21.2 °F - -0.4 °F 39% 29.93 in 10.0 mi Calm Calm - N/A   Clear
8:55 PM 21.2 °F - -0.4 °F 39% 29.93 in 10.0 mi Calm Calm - N/A   Clear
9:35 PM 19.4 °F - 1.4 °F 46% 29.93 in 10.0 mi Calm Calm - N/A   Clear
9:55 PM 19.4 °F - 1.4 °F 46% 29.92 in 10.0 mi Calm Calm - N/A   Clear
10:35 PM 19.4 °F - 3.2 °F 49% 29.92 in 10.0 mi Calm Calm - N/A   Clear
10:55 PM 19.4 °F - 3.2 °F 49% 29.92 in 10.0 mi Calm Calm - N/A   Clear
11:15 PM 19.4 °F - 1.4 °F 46% 29.92 in 10.0 mi Calm Calm - N/A   Clear
11:35 PM 19.4 °F - 3.2 °F 49% 29.92 in 10.0 mi Calm Calm - N/A   Clear